Вернуться в каталог

KUIPER-00503

АктивенСвязьLEO
NORAD 68884·PAYLOAD·🇺🇸 United States

Запущен Apr 28, 2026 с Cape Canaveral Space Force Station

Loading…

Ближайшие Пролёты (ближайшие 24 часа)

TLE

СвежийSource: CelesTrak SupGP

Эпоха: Sep 15, 2026, 00:39 UTC

1 68884C 26095W   26258.02755787 -.00018607  00000+0 -24362-2 0  2580
2 68884  51.8971 210.8617 0000882  66.2793 352.5877 14.79942510    13

Отслеживайте KUIPER-00503 в реальном времени с AllMySat

Download on the App Store